Regional Weather Roundup
Issued by NWS

Home | Current Version | Previous Version | Graphics & Text | Print | Product List | Glossary On
Versions: 1 2 3 4 5 6 7 8 9 10 11 12 13 14 15 16 17 18 19 20 21 22 23 24 25 26 27 28 29 30 31 32 33 34 35 36 37 38 39 40 41 42 43 44 45 46 47 48 49 50
221
ASUS43 KOAX 041302
RWRNE

WEATHER ROUNDUP FOR NEBRASKA
NATIONAL WEATHER SERVICE OMAHA NE
700 AM CST SUN DEC 04 2016

NOTES: SATELLITE DATA IS BEING USED TO AUGMENT CLOUD COVER ABOVE
       12000 FEET.
       "FAIR" INDICATES FEW OR NO CLOUDS BELOW 12,000 FEET WITH NO
       SIGNIFICANT WEATHER AND/OR OBSTRUCTIONS TO VISIBILITY.

  * THESE STATIONS DO NOT REPORT WEATHER SUCH AS RAIN...SNOW OR FOG.

NEZ001>004-019>022-054>056-041400-
NEBRASKA PANHANDLE

CITY           SKY/WX    TMP DP  RH WIND       PRES   REMARKS
SCOTTSBLUFF    CLEAR     19  11  70 NW5       30.00R WCI  12
ALLIANCE       CLOUDY    16  11  80 W9        29.96S WCI   4
CHADRON        PTCLDY    20  13  74 SW8       29.96R WCI  10
KIMBALL        CLEAR     28  15  60 W12       29.98S WCI  17
SIDNEY         CLEAR     23  13  65 W14       29.99F WCI  11
$$

NEZ057>060-069>072-079>082-041400-
SOUTHWEST NEBRASKA

CITY           SKY/WX    TMP DP  RH WIND       PRES   REMARKS
NORTH PLATTE   CLOUDY    19  15  84 W7        29.98S WCI  10
IMPERIAL       CLEAR     24  14  65 W12       30.01S WCI  13
LEXINGTON      CLEAR     24  20  86 W9        29.98S WCI  14
MCCOOK         CLEAR     23  16  74 W12       30.01R WCI  12
OGALLALA       CLEAR     26  17  71 SW6       29.99S WCI  19
$$

NEZ005>010-023>029-035>040-094-041400-
NORTH CENTRAL NEBRASKA

CITY           SKY/WX    TMP DP  RH WIND       PRES   REMARKS
VALENTINE      MOCLDY    23  18  81 W8        29.91S WCI  14
AINSWORTH      CLEAR     26  22  85 W3        29.91S
BROKEN BOW     CLEAR     31  21  66 NW14      29.94S WCI  21
O`NEILL        CLEAR     28  24  84 W7        29.92R WCI  21
ORD            CLEAR     22  19  89 CALM      29.95R
THEDFORD       CLEAR     24  19  81 W7        29.96R WCI  16
$$

NEZ041-046>049-061>064-073>077-083>087-041400-
SOUTH CENTRAL NEBRASKA

CITY           SKY/WX    TMP DP  RH WIND       PRES   REMARKS
GRAND ISLAND   CLEAR     29  29 100 W8        29.97S WCI  21
AURORA         CLOUDY    30  30 100 W7        29.96S FOG     WCI  23
HASTINGS       CLOUDY    30  29  96 W6        29.98R FOG     WCI  24
HEBRON         CLOUDY    32  31  96 W3        29.98F
HOLDREGE       CLEAR     26  23  88 W7        29.98R WCI  18
KEARNEY *      CLEAR     28  21  74 W6        29.98R WCI  22
YORK           CLOUDY    32  32 100 CALM      29.97R FOG
$$

NEZ011>018-030>034-042>045-041400-
NORTHEAST NEBRASKA

CITY           SKY/WX    TMP DP  RH WIND       PRES   REMARKS
NORFOLK        CLEAR     28  25  88 W9        29.92S WCI  19
ALBION         CLEAR     28  25  89 NW5       29.95R WCI  22
BLAIR          CLOUDY    33  32  94 SW7       29.96R WCI  27
FREMONT        CLOUDY    33  33  98 SW6       29.97R WCI  28
TEKAMAH        CLOUDY    32  30  92 S6        29.97R WCI  26
WAYNE          PTCLDY    26  25  96 S7        29.91F WCI  19
$$

NEZ050>053-065>068-078-088>093-041400-
SOUTHEAST NEBRASKA

CITY           SKY/WX    TMP DP  RH WIND       PRES   REMARKS
LINCOLN        CLOUDY    33  31  92 W8        29.99F WCI  26
OMAHA EPPLEY   CLOUDY    34  30  85 S5        29.99R WCI  30
BEATRICE       CLOUDY    33  32  97 W6        29.99F WCI  28
FALLS CITY     CLOUDY    36  32  85 SW3       29.99S
NEBRASKA CITY  CLOUDY    33  33 100 W8        29.99S FOG     WCI  26
PLATTSMOUTH    CLOUDY    33  31  92 W7        29.97F FOG     WCI  27
$$

NEZ044-045-051>053-067-041400-
OMAHA AREA

CITY           SKY/WX    TMP DP  RH WIND       PRES   REMARKS
OMAHA EPPLEY   CLOUDY    34  30  85 S5        29.99R WCI  30
BLAIR          CLOUDY    33  32  94 SW7       29.96R WCI  27
FREMONT        CLOUDY    33  33  98 SW6       29.97R WCI  28
MILLARD        CLOUDY    34  32  92 CALM      29.98S
OFFUTT AFB     CLOUDY    33  33 100 W5        29.98S WCI  29
PLATTSMOUTH    CLOUDY    33  31  92 W7        29.97F FOG     WCI  27
WAHOO          CLOUDY    33  32  94 W5        29.97S WCI  29
$$




USA.gov is the U.S. government's official web portal to all federal, state and local government web resources and services.